Tracking 25693 objects as of 1-Jul-2022
HD Live streaming from Space Station
objects crossing your sky now

ST5-B

Track ST5-B now!
10-day predictions
ST5-B is classified as:


NORAD ID: 28981
Int'l Code: 2006-008B
Perigee: 269.9 km
Apogee: 2,356.6 km
Inclination: 105.5 °
Period: 111.7 minutes
Semi major axis: 7684 km
RCS: 0.3032 m2 (medium)
Launch date: March 22, 2006
Source: United States (US)
Launch site: Pegasus launched from Western Range Air Space (WRAS)
aabbcc
Your satellite tracking list
Your tracking list is empty




NASA's NSSDC Master Catalog

Two Line Element Set (TLE):
1 28981U 06008B   22182.14578566  .00033590  34861-5  58832-3 0  9995
2 28981 105.4711 225.1143 1357808  58.8129 313.8980 12.88847422688035
Source of the keplerian elements: AFSPC